Terminal Aerodrome Forecast
Issued by NWS Wilmington, NC

Home | Current Version | Previous Version | Text Only | Print | Product List | Glossary On
Versions: 1 2 3 4 5 6 7 8 9 10 11 12 13
000
FTUS42 KILM 312300
TAFLBT
TAF
KLBT 312323Z 0100/0124 VRB04KT P6SM BKN130
     FM011700 18009KT P6SM FEW040 BKN200=

USA.gov is the U.S. government's official web portal to all federal, state and local government web resources and services.